Wind_Speed
64 65 66 66 68 73 69 68 68 62 59 55 53 50 47 43 40 39 36 32 33 34 32 32 30 30 29 31 32 33 32 33 34 35 36 35 34 35
66 69 73 69 69 74 71 69 66 64 60 56 54 51 48 45 42 40 39 37 35 39 38 36 34 32 31 32 33 34 37 36 36 36 37 37 40 39
69 71 74 78 78 79 80 73 65 66 61 56 54 51 50 48 44 42 40 38 39 39 41 40 36 32 32 34 35 33 35 39 38 39 42 42 40 42
59 64 68 75 84 75 74 78 63 66 61 57 56 54 53 49 45 43 41 41 40 40 39 37 35 41 42 40 41 43 44 39 41 43 46 45 44 44
43 50 50 66 66 86 81 69 68 61 60 57 58 56 52 49 46 44 42 43 43 43 43 43 40 39 42 43 46 47 51 47 42 44 44 43 42 44
43 44 53 56 54 69 63 69 63 58 58 57 58 56 51 48 47 45 46 47 47 44 43 43 44 42 45 40 44 50 54 50 47 44 43 44 45 44
39 45 49 42 44 53 53 58 56 52 55 55 56 53 50 48 48 49 49 50 49 46 45 44 48 46 52 53 63 58 47 42 41 41 45 47 45 41
35 35 35 37 58 54 53 58 52 50 52 55 54 51 50 51 51 52 53 52 49 46 51 50 52 56 57 58 48 48 45 43 43 45 44 43 45 49
32 34 36 39 48 47 46 47 48 49 52 52 51 49 52 52 52 53 54 53 50 51 55 55 61 56 57 53 43 44 46 47 47 49 51 50 52 55
37 34 35 37 42 38 41 45 46 47 46 47 50 54 54 51 53 56 57 55 54 56 56 61 58 55 50 47 48 51 50 51 53 55 58 58 59 59
42 39 35 36 38 42 47 48 46 46 49 51 51 53 55 55 55 58 56 57 60 59 62 56 51 47 47 50 52 52 52 54 58 58 58 58 58 61
44 42 44 46 46 42 43 46 47 48 52 57 56 50 50 55 56 57 60 65 65 64 65 57 50 50 51 52 53 55 55 57 57 56 57 57 54 52
46 46 50 48 49 49 49 48 51 54 53 50 49 54 58 60 65 69 71 62 63 53 47 47 49 54 57 57 57 55 55 53 53 53 50 50 49 49
29 40 46 40 42 49 54 54 54 50 48 50 55 62 66 69 67 60 52 50 44 43 46 49 53 53 51 50 49 47 47 49 48 49 51 51 50 52
19 17 23 22 24 28 31 32 32 32 39 43 41 44 45 40 41 45 48 45 45 44 44 45 46 46 46 46 46 47 48 49 51 52 52 52 54 54
21 22 24 25 24 27 31 26 30 32 29 30 37 39 36 33 33 34 37 41 43 43 44 45 45 46 47 47 49 50 51 53 55 54 55 57 58 57
28 31 31 35 32 37 34 33 35 37 37 34 33 34 36 38 40 40 41 42 43 44 45 46 47 49 50 51 52 54 55 57 58 59 60 61 61 61
39 38 42 37 33 33 34 34 35 36 36 36 36 37 38 38 40 41 42 42 44 46 47 49 51 53 54 56 57 59 60 61 63 65 64 63 62 64
37 38 39 38 37 36 35 36 37 38 38 39 39 40 40 41 42 44 45 47 48 50 52 54 55 57 58 59 62 64 64 66 66 66 67 67 67 68
36 37 37 38 39 39 39 39 40 40 40 41 41 42 43 44 45 47 49 50 51 53 55 56 58 60 61 62 63 66 66 66 67 67 67 67 66 64
39 39 39 40 39 38 37 37 38 39 39 40 41 43 44 44 47 49 50 51 53 54 56 57 58 60 61 62 63 63 64 64 63 63 64 64 63 63
36 34 34 36 36 34 33 32 33 34 36 38 41 44 46 48 49 51 53 53 53 54 56 57 58 60 61 61 62 62 62 62 62 61 60 60 60 59
36 34 36 39 38 33 29 30 33 35 39 42 44 46 48 49 49 51 53 54 55 55 56 56 57 57 58 57 57 55 54 54 54 55 56 57 57 57
Wind_Direction
255 253 249 245 240 247 236 237 237 238 241 243 244 244 243 243 244 246 249 249 256 262 264 266 268 271 274 279 282 286 288 289 292 295 296 298 301 304
259 254 248 246 240 238 242 230 235 237 238 240 244 246 245 245 246 248 249 252 251 252 263 271 268 270 274 276 279 287 289 291 292 293 296 297 298 303
259 254 249 244 239 239 238 240 230 237 237 239 242 244 245 246 247 249 251 252 255 256 257 262 264 270 275 278 280 283 287 289 289 291 296 299 298 297
263 260 249 247 240 223 230 227 223 232 236 238 241 243 244 246 248 250 252 255 256 257 258 259 261 271 271 278 280 283 284 281 287 291 295 294 296 297
260 250 251 250 246 244 227 229 220 228 235 236 240 243 245 248 250 251 253 255 255 256 259 264 266 267 271 280 289 288 285 283 287 290 290 290 294 295
259 255 253 253 247 232 234 246 218 226 233 236 240 243 245 248 250 252 253 254 256 258 261 265 269 276 282 284 286 290 290 286 288 287 287 288 291 292
252 253 260 228 223 218 221 230 218 224 231 237 241 243 247 249 251 252 254 255 257 261 262 266 270 272 280 281 283 285 289 285 285 288 292 291 286 286
262 249 239 227 217 212 212 221 214 227 231 237 240 244 246 249 251 255 257 259 259 265 268 267 274 274 277 280 283 283 280 281 286 288 292 295 287 287
257 242 237 232 224 214 211 214 219 227 232 236 240 244 249 251 255 257 261 263 264 262 268 274 277 278 272 279 279 287 285 279 281 285 291 287 287 286
241 226 223 223 214 209 210 218 224 229 235 239 242 245 248 252 256 260 260 263 266 268 270 276 279 277 273 271 281 285 286 282 282 285 288 287 287 290
247 226 218 226 223 223 223 224 226 231 237 241 243 246 247 252 258 260 263 267 268 267 268 279 276 266 271 276 278 282 282 281 283 284 286 287 287 288
250 232 226 223 222 224 225 229 230 235 240 241 243 252 259 259 260 263 261 261 262 271 276 273 273 270 275 279 280 283 283 284 285 287 288 291 291 291
253 253 228 227 230 229 229 232 236 239 242 250 251 252 254 254 254 261 265 273 277 273 274 270 271 277 280 280 282 283 284 286 288 289 288 288 289 289
250 252 252 261 251 245 241 243 244 250 254 263 261 255 252 257 265 269 269 268 266 269 272 273 275 279 281 282 283 282 283 284 285 284 287 288 287 289
213 220 235 239 244 247 250 250 248 250 259 258 253 253 257 258 256 256 259 265 269 270 271 273 275 278 279 281 283 283 283 283 283 285 285 285 288 290
212 219 225 207 221 233 232 249 232 237 246 244 246 248 249 254 258 261 263 265 267 270 273 275 277 279 280 280 282 282 282 283 283 284 285 285 287 286
213 209 204 220 230 235 234 233 229 243 251 254 255 258 260 261 262 264 266 268 271 273 275 277 279 281 282 282 282 283 283 282 284 284 284 285 285 284
226 227 233 239 237 234 235 236 240 244 250 253 255 257 259 261 264 267 269 272 274 276 278 278 279 281 282 283 283 283 283 283 283 283 283 284 284 284
230 229 231 234 236 238 239 241 244 247 249 253 257 260 264 267 269 271 273 274 275 276 276 277 279 280 281 282 281 282 282 281 282 283 283 283 284 285
234 237 238 239 240 243 246 248 250 253 256 258 261 263 265 266 267 269 270 272 273 274 276 278 278 278 279 279 280 281 281 282 282 283 283 285 286 287
244 244 247 247 249 251 253 257 260 262 263 266 268 269 271 275 276 274 275 276 278 278 279 280 280 281 281 281 281 282 283 282 283 284 285 285 286 287
256 250 251 249 251 250 250 254 261 267 272 275 276 277 277 279 282 283 281 282 282 282 282 281 282 282 282 282 283 283 283 285 286 287 288 288 288 287
251 249 246 250 248 253 261 268 270 274 277 278 279 281 284 286 287 286 286 285 284 283 283 282 282 283 283 284 285 286 287 288 289 289 289 289 289 289
Height
5756 5760 5763 5766 5771 5777 5778 5787 5794 5801 5807 5814 5819 5822 5826 5828 5831 5834 5835 5836 5837 5838 5838 5837 5837 5837 5836 5837 5835 5834 5833 5832 5831 5829 5827 5826 5824 5822
5740 5742 5745 5750 5756 5763 5765 5773 5781 5789 5796 5803 5809 5814 5818 5820 5822 5826 5827 5829 5828 5829 5830 5830 5829 5830 5829 5828 5827 5826 5825 5824 5823 5822 5819 5818 5816 5814
5720 5723 5727 5733 5739 5745 5751 5760 5768 5777 5785 5793 5799 5804 5808 5811 5813 5816 5818 5819 5820 5819 5820 5820 5822 5822 5822 5821 5819 5817 5817 5816 5815 5813 5811 5809 5807 5805
5702 5705 5710 5713 5718 5724 5733 5743 5752 5765 5774 5782 5788 5793 5797 5801 5804 5807 5809 5810 5811 5810 5811 5812 5812 5813 5813 5813 5812 5810 5809 5806 5805 5803 5801 5799 5797 5795
5687 5690 5693 5696 5700 5704 5718 5730 5740 5752 5762 5770 5777 5782 5787 5792 5795 5798 5799 5800 5800 5799 5802 5803 5803 5802 5804 5803 5801 5800 5797 5796 5794 5792 5790 5788 5786 5784
5675 5678 5680 5680 5686 5692 5704 5715 5727 5740 5751 5759 5766 5773 5777 5781 5786 5788 5788 5789 5790 5791 5791 5793 5793 5793 5794 5792 5791 5789 5787 5785 5783 5781 5778 5777 5775 5773
5667 5668 5669 5669 5675 5683 5694 5707 5717 5730 5741 5749 5758 5764 5767 5771 5774 5775 5777 5778 5779 5780 5781 5781 5782 5782 5782 5781 5779 5777 5775 5774 5772 5770 5767 5765 5763 5761
5661 5661 5664 5665 5673 5677 5686 5697 5710 5722 5731 5741 5747 5752 5756 5757 5760 5763 5764 5767 5770 5769 5771 5771 5770 5770 5770 5768 5765 5763 5762 5761 5760 5758 5756 5754 5752 5749
5654 5655 5659 5664 5668 5672 5681 5692 5706 5714 5722 5730 5736 5739 5743 5746 5748 5751 5753 5756 5756 5758 5757 5758 5758 5756 5754 5755 5753 5750 5749 5748 5746 5745 5743 5741 5739 5735
5649 5650 5656 5660 5666 5673 5680 5689 5698 5706 5713 5718 5723 5727 5732 5735 5737 5739 5741 5741 5744 5744 5743 5743 5744 5742 5740 5741 5740 5738 5735 5734 5733 5730 5728 5726 5723 5720
5643 5645 5652 5660 5666 5671 5679 5685 5690 5696 5701 5707 5711 5715 5719 5721 5724 5727 5728 5729 5732 5731 5729 5728 5728 5727 5728 5727 5725 5723 5721 5719 5717 5714 5712 5709 5707 5704
5639 5642 5647 5651 5655 5662 5668 5673 5679 5684 5689 5695 5700 5703 5706 5711 5713 5713 5714 5716 5715 5715 5715 5713 5713 5714 5715 5713 5710 5708 5706 5703 5701 5700 5698 5695 5692 5690
5631 5635 5638 5643 5647 5652 5659 5665 5670 5674 5681 5684 5687 5691 5694 5695 5698 5699 5699 5701 5701 5699 5698 5698 5700 5700 5698 5697 5695 5693 5691 5689 5689 5687 5684 5682 5679 5677
5625 5629 5633 5637 5643 5647 5652 5658 5662 5665 5669 5672 5675 5678 5681 5682 5684 5683 5684 5686 5686 5685 5685 5686 5687 5686 5685 5685 5683 5680 5678 5677 5675 5673 5671 5668 5665 5663
5620 5623 5628 5630 5636 5641 5644 5647 5652 5655 5659 5661 5661 5664 5667 5669 5671 5672 5674 5674 5674 5674 5674 5674 5674 5673 5673 5672 5670 5668 5666 5664 5661 5659 5657 5654 5652 5648
5616 5620 5623 5627 5632 5635 5639 5641 5645 5648 5651 5652 5654 5656 5658 5659 5661 5661 5661 5662 5662 5662 5662 5662 5661 5661 5660 5659 5656 5654 5651 5649 5647 5644 5642 5639 5636 5633
5612 5614 5617 5620 5625 5627 5630 5634 5636 5638 5640 5641 5643 5645 5646 5647 5648 5649 5650 5650 5650 5650 5649 5649 5648 5647 5646 5644 5641 5638 5635 5633 5631 5629 5626 5623 5619 5617
5601 5607 5610 5612 5615 5618 5621 5624 5626 5628 5630 5631 5633 5634 5635 5636 5637 5638 5638 5637 5637 5636 5636 5635 5634 5632 5630 5627 5625 5622 5620 5617 5614 5612 5610 5608 5604 5599
5595 5598 5601 5603 5605 5608 5611 5613 5615 5617 5618 5620 5621 5622 5623 5623 5624 5624 5624 5624 5623 5622 5621 5620 5618 5616 5614 5612 5609 5605 5603 5600 5598 5595 5591 5589 5587 5582
5585 5588 5591 5593 5596 5599 5601 5603 5604 5606 5607 5608 5609 5610 5610 5610 5610 5610 5610 5610 5609 5608 5606 5604 5602 5600 5598 5596 5592 5586 5584 5582 5580 5576 5572 5570 5568 5564
5575 5578 5581 5583 5585 5588 5590 5592 5593 5595 5596 5597 5597 5597 5598 5597 5597 5596 5595 5594 5593 5591 5589 5587 5585 5583 5580 5578 5575 5571 5566 5564 5561 5558 5555 5552 5550 5547
5564 5568 5571 5573 5575 5577 5579 5580 5581 5582 5582 5583 5584 5584 5583 5583 5582 5581 5580 5578 5576 5574 5572 5570 5568 5565 5563 5561 5558 5556 5551 5546 5543 5541 5537 5534 5532 5530
5553 5556 5559 5563 5565 5566 5567 5568 5569 5570 5571 5571 5571 5570 5569 5567 5566 5565 5564 5562 5561 5559 5556 5555 5552 5549 5546 5544 5541 5538 5535 5531 5528 5524 5520 5517 5514 5511